Volver al catálogo

USA 327

ActivoMilitarLEO
NORAD 52259·PAYLOAD·🇺🇸 United States

Lanzado Apr 17, 2022 desde Vandenberg Space Force Base

Loading…

Próximos Pases (próximas 24 horas)

TLE

EnvejeciendoSource: Mike McCants

Época: Sep 10, 2026, 03:27 UTC

1 52259U 22040A   26253.14440030 0.00000000  00000-0  00000-0 0    08
2 52259  63.4262 355.9482 0015278  44.7360 315.2640 13.41004216    04

Sigue USA 327 en tiempo real con AllMySat

Download on the App Store